Vorticity
10 6 4 5 4 3 5 5 5 2 3 8 4 2 4 1 3 4 0 6 10 9 12 9 3 11 12 9 12 6 3 5 4 6 7 8 9 6 7 11 8 4 5 4 2 3 3 3 4 3 3 3 3 4 5 5 5 6 6 7 6 5 5 4 4 5 5 6 6 6 6 5 5 6 6 6 6 6 6 7 7 7 8 8 8 7
11 8 4 4 6 5 4 4 3 5 9 6 3 4 -3 -3 10 8 2 8 10 7 9 8 4 5 3 8 19 14 4 3 4 5 5 8 9 6 7 11 10 6 4 5 3 2 3 3 2 3 3 3 3 3 4 5 5 6 6 6 6 6 6 5 4 4 5 5 6 6 6 5 5 5 6 5 5 5 5 6 6 6 7 8 8 7
11 10 6 5 6 3 2 4 1 4 11 7 6 6 -6 1 18 11 1 5 3 2 4 3 1 2 2 4 11 18 13 3 1 3 3 6 8 7 8 10 13 13 6 4 5 4 3 3 3 3 3 3 3 3 4 4 5 6 5 5 5 5 5 6 5 5 6 7 6 6 6 6 5 5 5 6 5 5 5 5 5 5 6 6 6 7
11 12 7 5 4 1 3 5 2 4 11 11 8 4 -2 4 13 10 5 6 9 10 10 9 4 2 6 5 2 10 19 12 1 -1 1 5 6 6 9 10 11 14 13 6 3 5 5 3 3 3 3 3 3 3 4 3 4 5 5 5 4 4 4 5 6 6 7 8 7 7 6 5 5 5 5 6 6 6 5 5 5 5 5 5 5 5
9 12 10 9 5 3 4 4 2 3 8 12 4 -4 9 18 10 6 6 4 5 4 4 8 9 5 5 8 7 3 11 19 11 -0 -2 3 6 6 7 11 10 9 13 13 6 4 5 5 4 4 4 4 3 4 4 4 4 5 5 5 4 4 4 4 6 8 8 8 9 8 6 5 5 5 5 5 5 5 6 5 5 5 5 5 6 5
8 12 14 11 5 3 4 2 3 3 3 10 5 -8 5 18 8 6 7 1 0 -1 -1 3 5 8 6 3 7 6 4 14 18 11 4 0 1 6 8 9 10 9 10 13 11 5 4 5 5 5 4 4 4 3 4 5 4 5 5 5 5 5 4 4 5 7 8 7 8 8 6 5 6 6 5 5 5 5 5 5 5 5 5 5 6 6
8 16 16 8 5 5 4 2 2 3 1 5 9 1 3 6 1 8 11 5 6 7 7 5 -1 5 12 6 4 8 6 8 15 16 14 8 -1 1 8 10 8 8 10 11 12 9 5 4 5 5 5 4 4 3 3 5 4 4 5 4 5 6 5 5 5 6 7 6 6 7 6 6 6 7 6 5 5 5 5 5 5 5 5 5 5 6
9 19 16 5 4 4 3 4 1 0 2 4 7 7 8 3 -1 9 9 -1 3 7 8 6 -2 -2 7 9 5 5 6 8 14 14 13 14 7 -1 3 11 9 6 9 11 12 12 8 6 5 4 5 5 5 5 3 4 4 3 4 4 4 5 6 6 6 6 6 6 6 6 6 6 6 7 7 6 5 5 5 5 6 6 6 5 5 6
9 19 14 5 4 3 3 5 2 -1 1 5 8 6 10 6 -0 10 10 0 3 5 5 7 5 2 4 7 5 2 1 3 11 15 14 14 11 4 1 6 8 6 8 8 9 13 11 9 7 4 5 6 5 6 4 3 4 3 2 4 4 4 6 5 5 6 7 6 6 6 6 6 6 7 8 8 7 6 6 5 6 6 6 6 6 6
9 17 14 4 2 0 4 6 2 0 -1 3 8 7 11 10 3 7 5 -1 5 6 4 8 7 2 2 4 5 3 -2 -2 4 9 14 18 13 6 3 4 6 5 6 8 7 9 12 12 9 5 6 6 6 6 6 4 3 4 3 3 4 4 5 5 5 5 5 6 6 6 7 6 6 7 8 7 6 6 7 7 7 6 6 6 6 7
9 15 13 4 2 2 6 6 1 2 -0 0 6 6 10 13 6 6 2 -5 0 5 3 7 9 1 -2 4 7 5 -2 -5 2 3 6 18 20 12 5 2 5 6 5 7 7 6 10 12 11 9 6 6 7 6 7 6 3 3 3 2 4 4 4 6 5 4 4 5 7 6 7 9 7 7 8 8 6 5 6 7 7 7 7 8 7 6
6 11 13 5 4 6 4 2 -0 3 2 -1 4 5 9 15 7 -0 2 0 -2 4 3 1 9 5 -5 1 7 6 2 -5 -1 4 2 9 19 24 20 5 -1 5 6 5 6 6 8 13 12 10 9 6 8 8 7 8 6 4 4 3 4 3 4 6 4 4 4 4 6 6 6 9 9 8 7 7 8 7 7 7 7 7 7 8 8 7
4 6 12 10 5 4 2 -0 -0 3 4 2 2 4 8 15 10 -4 -3 6 2 1 4 1 7 8 -1 0 5 6 7 2 2 8 7 6 6 14 30 25 2 -2 7 6 5 6 6 13 15 10 11 10 8 10 7 7 7 5 5 4 4 4 3 5 4 3 4 3 5 6 7 8 8 9 8 7 7 7 8 8 8 8 8 8 9 9
7 5 5 9 7 5 4 2 3 3 4 5 2 3 7 10 11 4 -1 8 9 4 5 3 4 8 4 2 3 6 8 8 8 10 12 13 8 -0 16 42 23 -5 5 9 2 7 7 9 14 10 11 13 10 10 7 6 7 6 7 6 5 6 4 4 5 3 4 4 4 5 6 7 8 9 9 8 7 6 6 8 8 8 8 8 9 9
5 11 10 9 6 5 4 2 4 4 2 4 1 1 7 9 9 8 3 3 9 13 12 8 5 6 9 7 6 7 8 9 9 12 14 12 16 6 2 44 50 0 -3 13 2 5 9 7 11 9 9 11 10 11 8 6 7 5 6 7 5 7 6 5 5 4 3 4 3 4 5 6 7 8 9 9 8 7 5 5 7 7 8 8 8 9
-4 6 15 10 6 6 5 4 5 5 3 2 2 0 1 9 11 7 8 3 -1 8 13 8 3 3 5 5 5 7 7 10 8 11 16 7 13 16 1 39 70 17 -12 9 6 2 8 7 9 7 6 8 7 10 10 7 8 7 5 6 5 5 6 7 7 6 5 5 4 3 3 4 5 6 8 9 9 9 7 5 5 6 7 8 8 9
4 8 20 8 7 8 2 7 7 1 6 6 4 3 -4 0 7 1 6 9 -2 1 11 8 3 4 4 -0 1 6 5 10 10 5 12 9 7 14 4 22 59 34 -4 2 8 4 6 8 10 7 5 7 6 8 10 8 7 7 6 5 5 5 5 6 6 6 6 6 6 5 3 2 3 4 6 8 9 9 8 7 5 5 6 7 7 8
5 10 28 9 6 16 3 6 12 -2 2 10 3 4 1 -1 4 -4 -3 9 5 1 7 8 4 3 6 5 6 11 6 6 13 6 6 11 7 10 9 7 27 37 19 4 4 7 6 7 9 7 4 5 5 6 8 9 8 7 8 6 6 6 6 7 7 7 7 6 6 6 6 4 2 2 2 5 8 9 9 8 7 6 5 6 7 8
1 -3 31 18 -2 17 12 3 14 6 2 10 3 2 5 -1 1 -3 -10 -3 1 0 3 3 1 -2 2 8 9 13 11 4 9 11 6 11 9 6 12 11 14 33 34 13 5 7 6 7 8 7 6 5 5 5 5 7 8 8 9 9 8 7 7 8 9 9 8 7 7 6 7 7 5 4 2 2 4 7 9 8 7 7 6 5 6 6
7 -12 27 41 4 8 21 7 9 11 5 7 5 5 6 -1 -0 2 -3 -4 -7 -4 4 4 5 5 8 18 16 9 10 6 5 10 8 9 11 7 11 14 20 44 44 15 3 7 5 7 9 6 6 5 4 5 5 5 6 7 9 8 8 8 8 8 9 11 11 9 9 7 6 7 7 6 5 2 2 3 6 8 8 8 7 6 5 5
15 -15 1 40 20 -1 14 14 8 11 9 8 6 6 7 3 1 1 1 4 -3 -8 2 9 12 13 12 20 19 6 4 5 4 8 8 7 9 9 11 11 21 50 49 12 -0 9 8 6 8 7 7 7 6 4 4 5 5 6 9 8 8 8 8 8 7 8 11 11 11 9 7 7 7 7 7 5 3 1 2 5 8 9 8 7 6 5
20 0 -10 21 29 10 11 14 11 10 9 10 9 7 8 6 4 4 0 4 6 -1 -2 4 6 10 15 18 14 7 3 2 3 8 8 7 7 7 10 10 13 32 39 18 2 3 7 9 7 6 7 5 7 6 4 5 5 5 8 9 9 9 8 9 10 9 9 11 13 12 10 8 7 6 7 7 6 5 2 2 4 8 10 10 8 7
16 15 4 3 10 17 19 10 9 13 9 7 9 8 11 9 7 10 5 1 8 7 3 5 1 1 14 18 9 5 6 2 3 9 9 6 7 4 5 8 10 15 23 28 19 4 1 8 7 5 8 7 6 6 3 3 4 4 7 9 8 9 9 8 8 9 9 9 11 14 13 10 8 7 6 6 6 7 6 4 2 4 6 9 11 10
18 20 18 4 -3 9 19 11 9 16 13 9 9 8 10 11 9 9 6 7 14 11 5 7 7 3 10 14 6 3 7 4 2 8 9 7 7 5 3 4 6 10 15 28 42 24 -5 -3 6 3 4 7 6 6 4 4 4 2 5 8 6 6 7 8 7 6 7 8 8 11 13 12 11 10 8 7 6 6 7 7 6 4 4 5 8 11
20 24 21 14 8 8 12 13 13 14 14 10 9 11 10 8 10 7 2 5 10 10 5 1 3 7 10 12 8 0 2 4 4 8 9 9 10 8 7 6 4 10 12 20 56 58 9 -11 4 5 3 6 4 4 3 2 4 3 3 5 5 6 6 6 7 5 4 7 7 7 9 10 10 11 11 10 9 9 8 8 8 7 5 4 4 8
18 24 20 13 13 16 14 13 13 13 13 10 6 10 11 7 9 10 4 2 -0 5 12 8 1 3 7 11 10 3 -0 1 8 14 7 7 16 12 9 12 9 12 12 11 46 70 31 -4 -1 1 2 5 3 5 6 3 3 2 2 3 2 6 9 7 6 7 5 4 4 3 4 5 6 7 8 9 10 10 10 9 10 10 9 7 4 4
12 18 22 12 2 14 25 19 15 13 11 14 9 6 9 9 8 9 8 7 4 4 11 10 3 -0 5 11 10 5 1 2 16 19 3 2 14 10 8 14 9 9 11 6 21 44 37 25 26 20 9 2 -1 1 0 0 4 2 0 5 5 3 5 6 5 4 4 3 2 2 2 2 4 3 3 5 5 7 8 7 8 10 11 11 8 4
10 13 21 14 -5 1 19 24 24 18 11 16 18 10 9 11 10 9 9 10 11 7 4 9 8 0 0 5 7 6 2 9 25 16 -5 2 13 5 3 9 7 5 7 4 11 22 23 26 36 40 34 26 22 19 7 -5 1 8 4 -1 2 4 2 3 5 2 2 5 4 4 5 4 2 0 1 3 1 2 6 6 6 7 8 11 12 9
11 18 19 16 7 3 9 16 24 24 14 11 16 15 13 11 10 11 10 9 13 10 6 14 20 11 2 0 4 6 -1 7 23 7 -17 -5 14 10 1 -2 1 5 5 1 3 8 6 3 10 18 20 22 28 38 40 17 -5 0 9 1 -2 5 3 -0 4 3 1 3 3 3 5 8 8 4 2 4 2 -0 2 4 5 5 4 6 10 11
7 23 24 15 14 13 8 8 11 19 20 12 10 15 15 11 9 9 6 5 7 4 -2 3 12 15 13 7 2 1 -6 -4 12 10 -11 -16 -2 7 2 -3 0 2 1 -2 -6 -2 4 4 7 7 6 11 9 11 42 57 23 -6 1 6 3 6 7 2 3 5 4 5 6 5 4 7 11 10 8 12 11 3 1 5 8 8 5 5 7 8
2 12 21 12 11 14 12 8 7 11 16 13 11 15 15 12 11 9 8 8 7 4 -1 -2 -0 3 10 14 10 6 3 -2 2 14 13 2 -1 -2 -5 1 5 -5 -4 1 -5 -3 3 4 11 13 7 10 5 -11 14 63 63 22 2 6 2 -2 3 3 1 3 2 2 3 3 3 4 7 8 8 11 12 6 6 12 16 14 7 2 4 7
11 0 12 13 10 13 13 11 11 11 10 8 11 17 17 14 12 10 9 9 9 9 8 7 4 -0 1 8 12 10 10 8 3 8 16 20 20 10 -2 3 3 -9 -1 10 2 -1 2 1 10 17 6 -2 0 -2 1 23 40 32 23 26 23 13 12 13 12 11 10 10 10 10 10 9 8 8 8 7 5 5 10 14 16 23 22 11 3 3
28 2 6 13 8 10 15 12 10 12 14 11 9 12 15 14 11 9 7 8 9 10 10 9 9 8 4 3 6 7 6 7 6 6 6 10 21 22 14 10 -0 -13 -4 8 5 3 6 5 6 10 10 3 -1 4 5 1 6 12 15 23 29 25 22 21 22 22 20 20 18 14 12 11 12 15 14 11 9 9 13 15 13 20 28 25 14 5
39 6 -1 13 11 8 12 12 8 8 10 10 7 8 11 14 13 10 7 6 5 6 9 9 9 11 9 7 8 8 6 4 1 1 -0 -4 1 10 15 17 9 -1 0 7 10 11 9 9 9 6 8 10 6 5 6 4 4 3 2 7 13 14 14 12 12 12 13 15 13 9 8 9 13 17 14 11 11 10 11 13 13 14 18 25 27 15
41 18 -1 6 13 11 11 11 8 7 5 4 6 8 8 9 12 13 12 10 7 4 6 8 9 9 8 8 6 5 8 10 6 4 3 -2 -4 1 9 16 16 12 10 10 12 14 12 10 10 8 7 8 10 11 9 7 6 3 2 3 4 6 8 7 8 9 9 11 10 10 10 8 9 12 11 8 9 8 8 8 9 15 18 24 32 24
31 30 11 1 4 12 18 15 4 6 13 7 0 3 6 6 8 10 10 13 12 9 7 8 8 9 9 9 8 5 5 6 8 10 7 4 4 5 6 12 15 12 11 9 7 9 13 12 9 9 11 10 10 12 12 12 10 6 7 8 5 4 3 3 6 7 7 9 9 9 10 8 7 9 10 9 8 7 8 6 6 13 18 17 25 30
18 27 24 14 5 4 17 22 7 3 17 17 4 0 2 2 6 8 8 11 12 11 11 10 9 10 11 9 9 11 7 2 3 6 3 3 7 6 3 5 7 7 6 4 4 3 5 10 11 11 11 10 10 10 10 12 14 10 9 11 11 7 4 3 4 4 4 6 7 7 9 8 6 5 6 9 10 7 10 12 11 12 13 9 16 31
13 18 23 23 16 6 12 23 17 7 13 16 8 5 4 2 2 3 5 8 10 10 10 10 10 12 12 12 12 14 13 10 6 2 1 6 8 4 1 1 1 3 3 2 4 5 4 6 9 9 9 9 9 9 7 7 11 12 8 9 10 8 6 5 6 6 6 6 5 6 7 6 5 5 4 5 5 4 8 17 21 20 19 15 17 26
12 14 18 19 18 13 8 12 16 13 18 20 12 7 9 8 5 3 3 4 7 10 11 12 12 10 11 14 13 9 11 16 14 8 5 7 5 2 4 3 -0 1 2 2 3 3 2 4 6 7 9 8 7 7 6 3 4 8 9 8 10 13 11 6 5 6 7 8 8 8 7 5 6 9 9 9 9 5 3 8 16 22 25 25 22 23
13 12 15 14 16 17 11 11 14 12 16 26 25 17 14 12 11 11 9 4 4 6 7 10 12 11 10 10 9 12 19 20 17 16 14 9 5 6 6 6 4 2 1 3 5 5 4 3 5 6 7 8 8 6 6 5 3 4 8 6 4 10 13 9 5 5 4 5 5 7 14 18 15 11 8 7 8 7 4 2 1 -1 2 10 18 25
13 13 13 12 14 16 13 15 19 15 11 16 20 23 23 20 16 12 8 6 7 5 2 4 8 11 13 10 6 11 15 9 6 12 15 11 10 9 7 9 10 8 8 7 2 2 6 4 3 6 5 4 7 7 5 6 6 4 7 9 7 8 10 10 8 6 6 8 6 4 8 8 2 2 8 8 3 1 1 3 3 -1 -5 -3 5 10
9 11 13 11 11 16 15 12 15 18 17 15 13 16 19 20 19 16 12 15 18 12 7 7 6 4 8 11 11 11 10 7 9 13 14 14 14 11 10 15 15 10 13 17 12 9 11 6 1 6 10 6 3 6 6 5 6 7 7 7 9 9 9 11 11 7 4 6 7 7 6 2 -3 2 10 12 9 8 6 5 7 6 2 -1 -1 -1
10 8 10 10 8 12 15 13 13 17 20 19 16 13 11 13 17 16 12 12 14 11 9 12 13 9 5 2 3 4 6 9 9 7 7 8 5 1 6 16 15 4 -0 8 19 20 18 19 14 6 8 11 5 3 6 4 3 7 7 5 6 7 6 8 11 10 7 5 6 9 12 12 10 8 6 7 10 12 11 11 12 8 4 2 2 2
15 12 11 11 9 9 10 11 14 17 17 15 15 14 13 14 17 18 15 14 14 11 6 5 9 13 15 13 9 5 4 1 -2 -1 4 4 0 1 6 8 8 3 -7 -3 12 8 1 22 39 19 2 8 8 2 6 7 3 3 4 4 5 6 6 6 5 6 7 8 8 8 6 8 11 10 9 13 15 12 7 7 11 11 10 9 7 7
15 15 14 14 13 12 12 12 12 13 12 12 13 13 14 14 15 17 19 19 19 19 16 10 6 5 8 12 15 18 20 17 10 5 3 0 -2 -0 3 1 4 10 7 4 12 5 -15 2 35 28 3 3 8 4 3 5 5 4 3 2 3 4 6 9 8 7 5 5 7 6 3 6 11 11 9 9 9 10 10 8 7 8 9 8 7 7
10 11 11 12 12 11 11 12 11 10 11 12 12 12 12 13 13 13 14 15 17 20 22 22 20 15 11 6 4 8 17 24 28 24 14 8 6 4 7 9 9 12 13 8 10 13 2 -1 19 28 14 3 5 7 5 3 3 4 3 3 3 2 3 5 8 10 9 7 7 7 5 6 9 11 11 6 -1 -0 6 10 11 11 11 9 6 6
6 6 6 7 8 8 8 8 7 8 8 8 9 10 10 11 11 11 11 13 14 16 17 19 20 21 21 19 13 8 7 9 16 21 19 17 16 11 9 13 9 7 13 12 8 13 14 5 6 17 18 11 7 8 8 4 2 2 4 6 7 6 5 4 5 7 8 8 8 7 6 5 6 8 11 12 9 6 6 5 4 4 6 7 6 5
3 4 4 3 3 4 6 7 5 4 5 5 5 6 6 7 8 9 9 10 10 11 12 14 16 17 18 21 21 18 15 10 8 8 9 10 12 10 5 6 7 6 11 14 12 13 18 14 7 7 12 15 13 10 8 8 8 8 8 10 11 9 7 6 4 5 7 7 8 7 5 4 4 4 5 8 11 13 11 8 5 4 6 8 9 7
4 4 3 3 4 3 2 2 1 -0 2 3 4 5 6 6 6 6 7 8 9 10 10 10 12 13 13 15 18 18 18 17 13 10 9 7 8 9 8 6 8 9 9 10 9 8 10 13 12 10 8 9 10 11 11 10 10 8 5 4 6 9 9 6 4 3 2 2 3 4 4 2 1 1 2 4 6 8 9 9 9 9 11 11 11 11
6 6 4 3 3 2 1 1 1 1 2 3 4 5 5 5 6 6 7 7 6 7 10 10 11 12 11 10 12 14 16 18 18 16 15 13 10 9 9 8 8 7 7 7 9 9 8 8 9 10 8 5 4 5 6 4 2 -0 -2 -2 1 5 6 6 6 5 3 2 0 0 1 1 -1 -2 -2 -1 1 4 6 7 7 8 9 10 10 10
6 7 7 6 6 5 5 4 4 3 4 4 4 4 4 5 7 7 7 8 7 6 7 8 10 12 13 12 11 11 11 13 15 16 17 18 17 15 13 13 12 10 8 7 7 9 10 11 11 9 8 7 6 6 7 9 8 7 8 9 9 8 7 7 7 7 6 5 4 3 1 1 2 2 2 2 2 4 4 5 6 7 7 8 8 8
Height
5860 5862 5866 5870 5876 5882 5884 5884 5886 5888 5890 5892 5893 5895 5896 5898 5899 5900 5902 5904 5905 5906 5908 5910 5910 5911 5912 5914 5914 5916 5918 5918 5920 5922 5924 5925 5926 5927 5928 5929 5930 5932 5934 5936 5937 5939 5940 5942 5942 5944 5945 5946 5946 5948 5948 5949 5950 5950 5951 5952 5952 5953 5954 5954 5954 5955 5955 5956 5956 5956 5956 5957 5958 5958 5958 5958 5959 5960 5960 5960 5960 5960 5960 5961 5961 5962
5858 5860 5864 5870 5874 5878 5880 5882 5886 5888 5888 5891 5892 5894 5896 5897 5898 5900 5902 5902 5904 5906 5907 5908 5910 5911 5912 5914 5914 5916 5918 5919 5920 5922 5923 5924 5926 5926 5928 5929 5930 5932 5934 5935 5937 5938 5940 5941 5942 5944 5944 5946 5946 5948 5948 5950 5950 5951 5952 5952 5953 5954 5954 5954 5955 5956 5956 5956 5956 5957 5958 5958 5958 5959 5960 5960 5960 5960 5961 5962 5962 5962 5962 5962 5962 5963
5856 5859 5864 5867 5870 5874 5878 5881 5884 5886 5887 5890 5892 5893 5894 5896 5898 5900 5901 5902 5902 5904 5906 5908 5909 5910 5912 5912 5914 5915 5917 5918 5920 5920 5921 5922 5924 5926 5927 5929 5930 5932 5934 5935 5936 5938 5940 5940 5942 5943 5944 5946 5947 5948 5949 5950 5950 5952 5952 5953 5954 5954 5954 5955 5956 5956 5956 5957 5958 5958 5958 5959 5960 5960 5960 5961 5962 5962 5962 5962 5963 5964 5964 5964 5964 5964
5855 5860 5862 5864 5869 5872 5876 5879 5882 5884 5887 5888 5890 5893 5894 5895 5897 5899 5900 5900 5901 5903 5905 5906 5907 5908 5910 5912 5913 5914 5916 5917 5918 5920 5920 5922 5923 5924 5926 5928 5930 5931 5933 5934 5936 5937 5938 5940 5941 5942 5944 5946 5947 5948 5949 5950 5951 5952 5952 5953 5954 5954 5955 5956 5956 5956 5958 5958 5958 5959 5960 5960 5960 5961 5961 5962 5962 5963 5964 5964 5964 5964 5964 5965 5965 5966
5854 5857 5859 5864 5868 5870 5873 5877 5880 5883 5886 5886 5888 5890 5892 5894 5895 5897 5898 5900 5900 5902 5904 5904 5906 5908 5909 5910 5912 5913 5914 5916 5918 5920 5920 5922 5922 5924 5925 5927 5928 5930 5932 5933 5934 5936 5938 5939 5940 5942 5944 5946 5946 5948 5949 5950 5951 5952 5952 5953 5954 5954 5955 5956 5956 5957 5958 5958 5959 5960 5960 5961 5962 5962 5962 5962 5963 5964 5964 5965 5965 5966 5966 5966 5966 5966
5852 5854 5858 5863 5864 5866 5872 5875 5878 5880 5883 5885 5886 5886 5890 5892 5893 5896 5897 5898 5900 5901 5902 5904 5906 5907 5908 5910 5911 5912 5914 5916 5918 5919 5920 5922 5922 5924 5926 5927 5928 5929 5930 5932 5934 5934 5936 5938 5940 5942 5943 5944 5946 5948 5949 5950 5952 5952 5953 5954 5954 5954 5955 5956 5956 5958 5958 5958 5960 5960 5960 5961 5962 5962 5963 5963 5964 5964 5964 5966 5966 5966 5966 5967 5967 5968
5848 5851 5856 5860 5862 5866 5870 5872 5875 5878 5880 5882 5884 5885 5888 5890 5892 5894 5895 5898 5900 5900 5901 5904 5906 5907 5908 5909 5911 5913 5914 5916 5918 5918 5919 5920 5922 5924 5926 5926 5928 5929 5930 5931 5932 5934 5934 5936 5939 5940 5942 5944 5946 5947 5948 5950 5951 5952 5952 5953 5954 5954 5955 5956 5956 5958 5958 5958 5959 5960 5960 5961 5962 5962 5963 5964 5964 5964 5965 5966 5966 5966 5967 5968 5968 5968
5846 5850 5854 5856 5860 5864 5868 5870 5874 5876 5878 5880 5882 5884 5888 5890 5890 5892 5894 5896 5898 5899 5901 5904 5905 5906 5907 5908 5910 5912 5914 5916 5916 5918 5918 5920 5922 5923 5925 5926 5927 5928 5930 5930 5932 5933 5934 5936 5938 5940 5942 5943 5944 5946 5948 5949 5950 5951 5952 5953 5954 5954 5955 5956 5957 5958 5958 5958 5959 5960 5960 5961 5962 5962 5963 5964 5964 5964 5965 5966 5966 5966 5967 5968 5968 5968
5844 5849 5852 5854 5858 5862 5866 5868 5870 5874 5876 5878 5880 5882 5886 5888 5889 5891 5893 5895 5896 5899 5901 5903 5904 5906 5907 5908 5910 5911 5912 5914 5916 5916 5918 5919 5920 5922 5924 5926 5926 5928 5929 5930 5930 5932 5934 5935 5937 5938 5940 5942 5944 5946 5946 5948 5950 5950 5952 5952 5953 5954 5955 5956 5956 5958 5958 5958 5959 5960 5960 5961 5962 5962 5963 5964 5964 5964 5965 5966 5966 5966 5967 5968 5968 5968
5841 5846 5848 5852 5856 5860 5862 5864 5868 5872 5874 5876 5878 5880 5884 5886 5888 5890 5892 5893 5896 5898 5900 5902 5904 5906 5906 5907 5908 5910 5911 5913 5914 5916 5916 5918 5920 5920 5922 5924 5926 5926 5928 5929 5930 5930 5932 5933 5935 5938 5940 5942 5944 5944 5946 5947 5948 5950 5951 5952 5952 5954 5955 5956 5956 5957 5958 5958 5959 5960 5960 5961 5962 5962 5963 5964 5964 5964 5964 5966 5966 5966 5967 5968 5968 5968
5838 5842 5846 5850 5852 5855 5858 5861 5866 5870 5871 5874 5876 5878 5882 5884 5886 5888 5890 5892 5895 5898 5900 5901 5903 5905 5906 5906 5907 5908 5910 5912 5914 5915 5916 5917 5918 5918 5920 5923 5924 5925 5926 5928 5928 5930 5930 5932 5934 5936 5938 5941 5942 5944 5945 5946 5948 5948 5950 5950 5952 5954 5954 5956 5956 5957 5958 5958 5958 5960 5960 5961 5962 5962 5962 5963 5964 5964 5964 5966 5966 5966 5966 5967 5968 5968
5838 5842 5844 5846 5848 5852 5856 5860 5864 5866 5869 5872 5874 5877 5880 5882 5885 5887 5888 5892 5895 5896 5898 5900 5902 5904 5906 5906 5906 5908 5909 5912 5913 5914 5916 5916 5918 5918 5919 5922 5924 5924 5925 5926 5928 5929 5930 5932 5934 5936 5938 5940 5942 5943 5944 5945 5946 5947 5948 5950 5951 5952 5954 5955 5956 5956 5957 5958 5958 5959 5960 5960 5961 5962 5962 5963 5964 5964 5964 5966 5966 5966 5966 5967 5968 5968
5838 5840 5841 5844 5847 5850 5855 5858 5861 5864 5867 5870 5872 5875 5878 5880 5884 5885 5888 5891 5894 5894 5896 5898 5900 5903 5904 5904 5906 5907 5908 5910 5912 5914 5915 5916 5916 5916 5918 5920 5922 5922 5924 5924 5926 5928 5930 5931 5933 5934 5936 5938 5940 5942 5942 5944 5944 5946 5947 5948 5949 5950 5952 5954 5954 5956 5956 5958 5958 5959 5960 5960 5960 5961 5962 5962 5964 5964 5964 5965 5966 5966 5966 5966 5968 5968
5834 5837 5838 5841 5845 5848 5853 5856 5858 5862 5866 5868 5870 5873 5876 5879 5882 5884 5887 5890 5892 5894 5896 5898 5900 5902 5903 5904 5905 5906 5906 5908 5910 5912 5914 5914 5915 5915 5916 5916 5918 5920 5922 5923 5925 5927 5929 5930 5932 5933 5934 5936 5938 5939 5940 5942 5943 5944 5946 5946 5948 5949 5950 5952 5953 5954 5956 5957 5958 5959 5959 5960 5960 5960 5962 5962 5963 5964 5964 5964 5965 5966 5966 5966 5967 5968
5832 5836 5836 5839 5844 5847 5851 5854 5857 5860 5864 5866 5869 5872 5875 5878 5881 5884 5886 5888 5891 5892 5894 5896 5898 5900 5902 5902 5904 5905 5906 5908 5908 5910 5912 5912 5912 5912 5913 5913 5914 5917 5919 5921 5923 5926 5928 5928 5930 5931 5932 5934 5935 5936 5938 5940 5942 5942 5944 5944 5946 5948 5949 5950 5952 5952 5954 5956 5957 5958 5959 5959 5959 5960 5960 5962 5962 5962 5963 5964 5964 5965 5966 5966 5966 5967
5830 5832 5831 5836 5841 5844 5849 5852 5854 5858 5862 5864 5867 5870 5873 5876 5880 5882 5884 5887 5889 5890 5892 5894 5897 5899 5900 5901 5902 5904 5905 5906 5907 5908 5910 5910 5910 5910 5910 5910 5912 5914 5917 5919 5922 5924 5926 5927 5928 5930 5930 5932 5932 5934 5936 5938 5940 5941 5942 5943 5944 5946 5947 5948 5950 5951 5953 5954 5956 5957 5958 5958 5958 5959 5960 5960 5961 5962 5962 5962 5964 5964 5964 5966 5966 5966
5828 5829 5828 5832 5838 5840 5846 5850 5852 5856 5860 5862 5864 5868 5872 5875 5877 5880 5882 5885 5886 5888 5890 5892 5896 5898 5898 5900 5901 5902 5904 5904 5906 5907 5908 5908 5908 5908 5909 5910 5911 5914 5916 5918 5920 5922 5924 5926 5927 5928 5929 5930 5930 5932 5934 5936 5938 5938 5940 5942 5942 5944 5946 5947 5948 5950 5952 5953 5954 5956 5956 5958 5958 5958 5958 5960 5960 5960 5962 5962 5962 5962 5964 5964 5965 5966
5823 5826 5826 5831 5836 5838 5844 5847 5848 5854 5856 5858 5862 5866 5870 5872 5874 5878 5880 5882 5884 5886 5888 5891 5894 5896 5897 5898 5899 5900 5902 5903 5904 5906 5906 5906 5906 5906 5908 5908 5910 5912 5915 5917 5919 5920 5922 5924 5926 5927 5928 5929 5930 5930 5932 5934 5935 5937 5938 5940 5942 5942 5944 5945 5946 5948 5950 5951 5952 5954 5955 5956 5957 5958 5958 5958 5959 5960 5960 5961 5961 5962 5962 5963 5964 5964
5820 5824 5825 5828 5833 5836 5841 5844 5846 5850 5852 5856 5860 5864 5866 5870 5873 5876 5878 5880 5882 5885 5887 5890 5892 5894 5896 5896 5898 5899 5900 5902 5903 5904 5904 5904 5904 5904 5906 5907 5908 5909 5911 5914 5916 5918 5921 5922 5924 5926 5927 5928 5928 5929 5930 5932 5934 5936 5938 5939 5940 5942 5942 5944 5946 5947 5948 5950 5950 5952 5953 5954 5956 5956 5957 5958 5958 5958 5959 5960 5960 5960 5961 5962 5962 5963
5818 5824 5826 5827 5830 5834 5837 5841 5844 5847 5850 5854 5857 5860 5862 5867 5870 5873 5876 5879 5881 5884 5886 5888 5891 5893 5894 5894 5896 5898 5899 5900 5902 5902 5902 5902 5902 5903 5904 5905 5906 5906 5907 5910 5914 5917 5920 5922 5923 5924 5926 5927 5928 5928 5930 5932 5933 5934 5936 5938 5939 5940 5941 5942 5944 5946 5946 5948 5948 5950 5951 5952 5954 5954 5955 5956 5956 5957 5958 5958 5959 5960 5960 5960 5961 5962
5817 5822 5824 5824 5827 5831 5834 5838 5843 5846 5848 5852 5854 5858 5860 5865 5868 5870 5873 5876 5878 5881 5884 5887 5890 5891 5891 5892 5894 5896 5897 5898 5900 5901 5901 5901 5901 5902 5903 5904 5903 5904 5905 5908 5912 5915 5918 5920 5922 5923 5924 5926 5926 5928 5930 5930 5932 5934 5935 5936 5938 5938 5940 5942 5942 5944 5945 5946 5946 5948 5949 5950 5952 5952 5953 5954 5955 5956 5956 5957 5958 5958 5959 5960 5960 5961
5815 5820 5822 5823 5826 5830 5832 5836 5841 5843 5846 5850 5853 5856 5860 5864 5866 5868 5871 5873 5876 5878 5880 5884 5888 5888 5888 5892 5892 5894 5896 5896 5898 5900 5900 5900 5900 5901 5902 5902 5903 5904 5906 5908 5910 5913 5916 5918 5920 5921 5922 5924 5926 5928 5928 5930 5931 5932 5934 5934 5936 5937 5938 5940 5941 5942 5943 5944 5944 5946 5948 5948 5950 5951 5952 5953 5954 5954 5956 5956 5957 5958 5958 5959 5960 5960
5813 5816 5820 5822 5826 5828 5828 5832 5837 5840 5843 5847 5851 5854 5858 5861 5864 5868 5870 5872 5874 5876 5878 5882 5884 5884 5887 5890 5891 5892 5894 5895 5896 5898 5898 5898 5900 5900 5901 5902 5904 5904 5906 5907 5908 5910 5913 5915 5917 5918 5920 5922 5924 5926 5926 5928 5930 5930 5931 5932 5934 5935 5936 5938 5938 5940 5940 5942 5942 5944 5945 5946 5948 5949 5950 5952 5952 5954 5954 5955 5956 5957 5958 5958 5959 5960
5811 5814 5818 5820 5824 5824 5826 5830 5834 5837 5840 5845 5848 5852 5854 5858 5862 5866 5870 5871 5870 5873 5876 5880 5882 5883 5886 5888 5889 5890 5892 5894 5895 5896 5896 5898 5898 5899 5900 5902 5903 5904 5904 5904 5905 5908 5910 5912 5914 5916 5918 5919 5922 5923 5924 5926 5927 5928 5929 5930 5932 5932 5934 5935 5936 5936 5938 5939 5940 5942 5944 5944 5946 5947 5948 5950 5950 5952 5953 5954 5955 5956 5956 5957 5958 5958
5808 5812 5815 5818 5822 5823 5825 5828 5830 5833 5838 5842 5845 5848 5850 5855 5859 5862 5866 5866 5866 5870 5874 5877 5879 5880 5884 5886 5887 5888 5890 5891 5893 5894 5895 5896 5896 5898 5898 5900 5902 5902 5902 5901 5901 5902 5906 5908 5911 5913 5914 5916 5918 5920 5922 5922 5924 5925 5926 5928 5928 5930 5932 5934 5934 5936 5936 5938 5940 5942 5942 5944 5944 5946 5946 5948 5948 5950 5951 5952 5954 5954 5955 5956 5956 5957
5807 5810 5812 5816 5819 5822 5823 5824 5827 5830 5834 5838 5840 5844 5848 5853 5856 5859 5862 5864 5865 5868 5871 5874 5876 5878 5880 5884 5884 5886 5887 5888 5890 5892 5892 5894 5894 5896 5897 5898 5900 5900 5899 5899 5898 5900 5904 5906 5909 5910 5912 5914 5916 5918 5919 5920 5921 5922 5924 5924 5925 5928 5930 5932 5933 5934 5936 5938 5938 5940 5940 5942 5943 5945 5946 5947 5948 5948 5950 5951 5952 5953 5954 5954 5954 5956
5806 5808 5810 5814 5816 5818 5820 5822 5826 5830 5832 5836 5839 5843 5847 5850 5853 5857 5860 5862 5864 5866 5868 5872 5874 5876 5878 5881 5882 5883 5884 5886 5888 5889 5890 5892 5893 5894 5895 5896 5897 5898 5898 5898 5899 5901 5904 5906 5907 5908 5910 5912 5913 5914 5916 5918 5920 5920 5921 5922 5924 5926 5928 5930 5931 5932 5934 5936 5936 5938 5939 5940 5941 5942 5944 5946 5947 5948 5948 5949 5950 5951 5952 5952 5953 5953
5804 5806 5810 5812 5814 5816 5818 5822 5826 5829 5832 5834 5838 5842 5844 5848 5851 5854 5857 5859 5860 5864 5866 5869 5872 5873 5876 5878 5880 5882 5881 5882 5886 5886 5886 5888 5890 5892 5892 5894 5895 5896 5896 5898 5899 5900 5902 5904 5904 5906 5907 5908 5910 5911 5912 5916 5918 5918 5918 5920 5922 5924 5926 5927 5929 5931 5932 5933 5934 5936 5938 5938 5939 5940 5941 5942 5944 5945 5946 5946 5946 5948 5949 5950 5950 5950
5802 5805 5808 5810 5813 5815 5818 5821 5824 5826 5830 5832 5836 5840 5842 5846 5848 5850 5853 5856 5858 5861 5864 5865 5868 5870 5872 5874 5878 5880 5880 5880 5882 5884 5884 5886 5888 5889 5890 5892 5892 5894 5895 5896 5898 5898 5900 5901 5902 5902 5903 5904 5905 5907 5910 5912 5914 5914 5916 5918 5920 5922 5924 5924 5926 5928 5930 5931 5932 5934 5934 5936 5936 5938 5938 5938 5940 5941 5942 5943 5944 5944 5945 5946 5947 5948
5801 5803 5805 5808 5811 5814 5817 5820 5822 5824 5828 5830 5834 5836 5840 5842 5845 5847 5850 5852 5854 5858 5860 5862 5864 5866 5868 5871 5874 5876 5878 5879 5880 5880 5882 5884 5886 5887 5888 5890 5890 5892 5894 5895 5896 5898 5898 5898 5898 5900 5900 5900 5902 5904 5906 5906 5908 5911 5912 5914 5917 5919 5920 5922 5924 5926 5927 5928 5930 5930 5931 5932 5934 5935 5936 5936 5937 5938 5940 5940 5941 5942 5942 5943 5944 5944
5799 5801 5803 5806 5810 5812 5816 5819 5821 5823 5826 5828 5831 5834 5837 5840 5842 5844 5847 5849 5851 5854 5857 5860 5862 5864 5865 5868 5872 5874 5876 5878 5878 5879 5880 5882 5884 5886 5886 5888 5888 5889 5891 5892 5894 5896 5897 5897 5897 5898 5898 5898 5899 5901 5902 5902 5903 5907 5910 5912 5914 5916 5918 5920 5921 5922 5924 5925 5926 5927 5928 5929 5930 5932 5933 5934 5934 5936 5936 5937 5938 5938 5939 5940 5940 5942
5797 5800 5802 5805 5808 5810 5814 5816 5819 5822 5824 5827 5830 5832 5834 5837 5840 5842 5844 5846 5848 5851 5854 5857 5858 5860 5863 5866 5868 5872 5873 5874 5876 5878 5878 5880 5881 5883 5884 5885 5885 5886 5889 5890 5891 5892 5894 5895 5896 5896 5897 5898 5898 5899 5900 5900 5901 5904 5906 5908 5911 5913 5914 5916 5918 5918 5920 5922 5922 5923 5924 5926 5927 5928 5930 5930 5932 5932 5932 5934 5934 5934 5935 5936 5937 5938
5796 5798 5801 5802 5806 5809 5812 5814 5818 5821 5823 5825 5827 5830 5832 5834 5837 5839 5841 5843 5845 5848 5851 5853 5855 5858 5861 5864 5866 5868 5870 5872 5874 5876 5877 5878 5878 5880 5882 5882 5882 5884 5886 5888 5889 5890 5892 5893 5894 5896 5896 5896 5897 5898 5900 5900 5901 5902 5904 5906 5908 5910 5911 5913 5914 5916 5916 5918 5918 5920 5920 5922 5924 5924 5926 5926 5928 5928 5929 5930 5930 5930 5930 5932 5932 5934
5794 5798 5800 5801 5804 5806 5810 5813 5816 5818 5820 5822 5824 5827 5830 5832 5834 5836 5838 5840 5843 5846 5848 5850 5853 5856 5858 5861 5863 5865 5868 5870 5870 5872 5874 5875 5876 5878 5878 5880 5880 5880 5882 5885 5887 5888 5890 5891 5892 5894 5894 5895 5896 5896 5898 5899 5900 5902 5903 5904 5906 5906 5908 5909 5910 5912 5914 5914 5916 5916 5918 5920 5920 5922 5922 5923 5924 5925 5926 5926 5927 5927 5927 5927 5928 5930
5793 5796 5798 5800 5802 5804 5808 5812 5814 5816 5816 5819 5822 5824 5827 5830 5832 5834 5836 5838 5840 5843 5845 5848 5850 5852 5855 5858 5860 5862 5864 5866 5868 5869 5870 5872 5873 5874 5876 5877 5878 5878 5880 5882 5884 5886 5888 5888 5890 5892 5892 5893 5894 5894 5896 5898 5898 5900 5901 5902 5904 5904 5905 5906 5908 5908 5910 5912 5912 5914 5916 5916 5918 5918 5920 5920 5920 5922 5922 5923 5924 5924 5924 5924 5924 5926
5792 5794 5797 5800 5802 5804 5806 5808 5811 5812 5814 5818 5820 5823 5826 5828 5830 5832 5834 5836 5838 5840 5842 5844 5847 5850 5852 5854 5857 5860 5862 5864 5864 5866 5866 5868 5870 5870 5872 5873 5874 5876 5877 5878 5880 5882 5884 5886 5887 5888 5889 5890 5892 5892 5894 5895 5896 5898 5899 5900 5901 5902 5903 5904 5905 5906 5908 5909 5910 5911 5912 5914 5915 5916 5917 5918 5918 5918 5919 5920 5920 5920 5921 5921 5922 5922
5791 5793 5796 5798 5801 5802 5804 5806 5808 5810 5813 5816 5818 5820 5823 5826 5828 5830 5832 5834 5836 5838 5840 5842 5844 5846 5848 5851 5854 5856 5858 5860 5861 5862 5862 5864 5866 5868 5868 5870 5870 5872 5874 5875 5876 5878 5880 5882 5884 5884 5886 5887 5888 5890 5891 5892 5894 5896 5896 5897 5898 5900 5901 5902 5902 5904 5906 5907 5908 5909 5910 5912 5912 5914 5914 5915 5915 5916 5916 5917 5918 5918 5917 5917 5918 5918
5790 5792 5794 5797 5800 5801 5802 5804 5806 5808 5810 5812 5815 5818 5820 5822 5825 5827 5830 5832 5833 5835 5836 5838 5841 5843 5845 5848 5850 5852 5855 5856 5857 5858 5859 5861 5862 5864 5865 5866 5868 5869 5870 5871 5872 5874 5876 5878 5880 5881 5882 5884 5885 5886 5888 5890 5892 5892 5894 5894 5896 5897 5898 5899 5900 5901 5902 5904 5906 5906 5908 5909 5910 5911 5912 5912 5912 5914 5914 5914 5914 5914 5914 5914 5914 5914
5789 5791 5792 5795 5798 5800 5802 5803 5804 5806 5808 5810 5813 5815 5818 5820 5822 5824 5826 5828 5830 5832 5834 5836 5838 5840 5842 5844 5846 5848 5851 5852 5852 5853 5856 5857 5858 5860 5861 5862 5864 5865 5866 5867 5868 5870 5872 5874 5876 5877 5878 5880 5881 5883 5884 5886 5888 5888 5890 5892 5893 5894 5895 5896 5897 5898 5900 5901 5903 5904 5904 5906 5906 5908 5909 5909 5910 5912 5912 5912 5911 5911 5912 5912 5912 5912
5788 5790 5792 5794 5796 5798 5800 5801 5802 5804 5806 5808 5810 5812 5814 5817 5819 5822 5822 5824 5826 5830 5832 5833 5835 5836 5838 5840 5842 5844 5846 5847 5847 5848 5850 5851 5852 5854 5856 5858 5859 5860 5862 5863 5864 5866 5868 5869 5870 5872 5874 5876 5877 5879 5880 5882 5884 5884 5886 5888 5890 5890 5892 5893 5894 5895 5896 5898 5900 5900 5901 5902 5903 5904 5906 5906 5906 5908 5910 5910 5910 5910 5910 5911 5912 5911
5788 5788 5790 5792 5794 5796 5798 5799 5800 5802 5804 5806 5808 5810 5812 5814 5816 5817 5818 5820 5824 5826 5828 5830 5832 5834 5835 5836 5838 5840 5842 5842 5844 5844 5844 5846 5847 5848 5850 5852 5854 5856 5857 5858 5860 5861 5863 5865 5866 5868 5870 5872 5874 5875 5876 5878 5880 5881 5882 5884 5885 5886 5888 5890 5891 5892 5894 5894 5896 5897 5898 5899 5900 5902 5904 5904 5904 5904 5906 5908 5908 5908 5909 5910 5910 5910
5787 5788 5790 5791 5792 5794 5796 5797 5798 5800 5801 5803 5805 5807 5809 5810 5812 5814 5816 5818 5820 5822 5824 5826 5828 5830 5832 5834 5835 5836 5838 5838 5838 5840 5842 5843 5844 5846 5847 5849 5850 5850 5852 5854 5855 5856 5858 5860 5862 5864 5866 5867 5869 5870 5872 5874 5876 5877 5878 5880 5880 5882 5884 5886 5887 5888 5890 5890 5892 5893 5894 5896 5897 5899 5900 5900 5901 5902 5902 5904 5906 5906 5908 5908 5908 5908
5786 5788 5788 5790 5791 5792 5794 5795 5796 5798 5800 5800 5802 5804 5806 5807 5809 5812 5814 5815 5816 5818 5820 5822 5823 5825 5828 5829 5831 5832 5833 5834 5834 5836 5838 5839 5840 5842 5844 5844 5846 5846 5848 5849 5850 5852 5854 5856 5857 5859 5861 5862 5864 5866 5868 5870 5872 5874 5875 5876 5877 5878 5880 5882 5883 5884 5886 5886 5888 5890 5890 5892 5894 5896 5896 5896 5897 5898 5898 5899 5900 5902 5904 5905 5905 5906
5786 5787 5788 5789 5790 5791 5792 5794 5795 5796 5798 5799 5800 5802 5803 5804 5806 5808 5810 5812 5813 5814 5816 5818 5819 5821 5822 5824 5826 5828 5828 5829 5830 5832 5834 5835 5836 5838 5839 5840 5842 5843 5844 5845 5846 5848 5849 5850 5852 5854 5856 5858 5860 5861 5863 5865 5867 5869 5871 5872 5873 5874 5876 5878 5880 5880 5882 5882 5884 5886 5887 5888 5890 5892 5892 5893 5894 5894 5894 5896 5897 5898 5900 5902 5902 5902
5786 5787 5788 5788 5790 5790 5791 5792 5794 5795 5796 5797 5798 5800 5800 5802 5804 5805 5806 5808 5809 5810 5812 5814 5815 5816 5818 5820 5821 5822 5823 5824 5826 5827 5828 5830 5832 5833 5834 5836 5838 5838 5840 5841 5842 5843 5844 5846 5848 5850 5852 5854 5855 5857 5858 5860 5862 5864 5866 5868 5869 5870 5872 5873 5874 5876 5878 5879 5880 5882 5882 5884 5886 5887 5888 5890 5890 5890 5892 5892 5894 5894 5896 5898 5898 5900
5786 5787 5788 5788 5789 5790 5790 5792 5792 5794 5794 5796 5796 5798 5799 5800 5801 5802 5803 5804 5806 5806 5808 5810 5810 5812 5814 5815 5816 5817 5818 5819 5820 5822 5823 5824 5826 5828 5830 5831 5832 5834 5834 5836 5838 5838 5840 5842 5844 5845 5846 5848 5850 5852 5854 5856 5857 5859 5860 5862 5864 5866 5866 5868 5870 5871 5873 5874 5876 5876 5878 5879 5880 5882 5884 5886 5886 5887 5888 5888 5889 5890 5891 5893 5894 5895
5786 5786 5788 5788 5788 5789 5790 5790 5792 5792 5793 5794 5795 5796 5797 5798 5798 5800 5800 5802 5802 5804 5804 5805 5806 5808 5808 5810 5811 5812 5813 5814 5816 5816 5818 5819 5820 5822 5824 5825 5826 5828 5830 5830 5832 5834 5834 5836 5838 5840 5841 5843 5845 5846 5848 5850 5852 5854 5856 5857 5859 5860 5861 5862 5864 5865 5867 5868 5870 5872 5873 5874 5876 5877 5878 5880 5882 5882 5884 5884 5884 5886 5886 5888 5890 5890
5786 5786 5787 5788 5788 5788 5789 5790 5790 5791 5792 5792 5793 5794 5794 5796 5796 5797 5798 5798 5800 5800 5801 5802 5802 5804 5804 5806 5806 5808 5808 5810 5810 5811 5812 5814 5815 5816 5817 5818 5820 5822 5824 5825 5826 5828 5828 5830 5832 5834 5836 5838 5840 5841 5843 5844 5846 5848 5850 5852 5853 5854 5856 5857 5858 5860 5861 5862 5864 5866 5868 5868 5870 5872 5872 5874 5876 5877 5878 5879 5880 5881 5882 5884 5884 5886
5784 5785 5786 5786 5787 5788 5788 5788 5789 5790 5790 5790 5792 5792 5792 5793 5794 5794 5795 5796 5796 5797 5798 5798 5799 5800 5800 5801 5802 5803 5804 5804 5805 5806 5807 5808 5810 5810 5810 5812 5814 5816 5817 5818 5820 5821 5822 5824 5826 5827 5829 5832 5834 5835 5837 5838 5840 5842 5844 5845 5847 5848 5850 5852 5853 5854 5856 5857 5858 5860 5861 5863 5864 5866 5867 5868 5870 5871 5872 5874 5874 5876 5876 5878 5879 5880
5782 5783 5784 5784 5785 5786 5786 5787 5788 5788 5788 5789 5790 5790 5790 5791 5791 5792 5792 5792 5792 5793 5794 5794 5795 5796 5796 5797 5798 5798 5799 5800 5800 5801 5802 5802 5804 5804 5805 5806 5808 5809 5810 5812 5814 5814 5816 5818 5819 5820 5822 5824 5826 5828 5830 5832 5834 5835 5836 5838 5840 5842 5844 5845 5846 5848 5850 5851 5852 5854 5855 5856 5858 5859 5861 5862 5864 5865 5866 5868 5869 5870 5871 5872 5873 5874
5780 5781 5782 5782 5782 5783 5784 5785 5785 5786 5786 5786 5787 5788 5788 5788 5788 5788 5788 5788 5789 5789 5790 5790 5790 5791 5792 5792 5792 5793 5794 5794 5796 5796 5796 5797 5798 5798 5799 5800 5802 5802 5804 5806 5807 5808 5809 5810 5812 5814 5816 5818 5820 5822 5823 5824 5826 5828 5829 5830 5832 5834 5836 5838 5840 5841 5843 5844 5846 5848 5849 5850 5852 5853 5854 5856 5857 5858 5860 5861 5862 5864 5866 5866 5868 5869